Location: Biltmore Gardens
(41.6070°N, 83.4666°W)
Time: 14:17:23
(UTC+00:00)

Aureole 1 Rocket - Pass Details

Date: 14 July 2020
Orbit: 377 x 1380 km, 73.9° (Epoch: 05 August)

Event Time Altitude Azimuth Distance (km) Brightness Sun altitude
Exits shadow 07:33:42 55° 195° (SSW) 825 3.3 -21.5°
Maximum altitude 07:34:46 88° 112° (ESE) 724 3.3 -21.4°
Drops below altitude 10° 07:40:35 10° 20° (NNE) 2,575 7.4 -20.9°
Sets 07:43:28 0° 21° (NNE) 3,696 8.5 -20.6°
